Marysville, OH

1:23 AM EDT on May 23, 2017 (GMT -0400)
Marysville

Weather History for KMRT - August, 2012

Change the Weather History Date:

Tuesday, August 7, 2012

  Actual Average (KDLZ) Record (KDLZ)
Temperature  
Mean Temperature 70 °F -  
Max Temperature 85 °F 80 °F 95 °F (1938)
Min Temperature 54 °F 59 °F 49 °F (1971)
Cooling Degree Days 4    
Growing Degree Days 20 (Base 50)    
Moisture  
Dew Point 56 °F    
Average Humidity 67    
Maximum Humidity 94    
Minimum Humidity 31    
Precipitation  
Precipitation 0.00 in - - ()
Sea Level Pressure  
Sea Level Pressure 30.02 in    
Wind  
Wind Speed 2 mph (WNW)    
Max Wind Speed 12 mph    
Max Gust Speed 18 mph    
Visibility 10 miles    
Events      
Averages and records for this station are not official NWS values.
T = Trace of Precipitation, MM = Missing Value Source: NWS Daily Summary

Daily Weather History Graph

Daily Weather History Graph

Search for Another Location

Airport or City:

Trip Planner

Search our weather history database for the weather conditions in past years. The results will help you decide how hot, cold, wet, or windy it might be!

Date:

Astronomy

Aug. 07, 2012 Rise Set
Actual Time 6:37 AM EDT 8:40 PM EDT
Civil Twilight 6:07 AM EDT 9:09 PM EDT
Nautical Twilight 5:31 AM EDT 9:46 PM EDT
Astronomical Twilight 4:51 AM EDT 10:25 PM EDT
Moon 11:19 PM EDT (8/7) 12:24 PM EDT (8/7)
Length of Visible Light 15h 02m
Length of Day
14h 02m
Waning Gibbous, 70% of the Moon is Illuminated
Aug 7
Waning Gibbous
Aug 9
Last Quarter
Aug 17
New
Aug 24
First Quarter
Aug 31
Full

Hourly Weather History & Observations

Time (EDT) Temp. Heat Index Dew Point Humidity Pressure Visibility Wind Dir Wind Speed Gust Speed Precip Events Conditions
12:13 AM 60.4 °F - 57.6 °F 90% 30.06 in 10.0 mi Calm Calm - N/A   Clear
12:34 AM 60.3 °F - 58.1 °F 93% 30.05 in 10.0 mi Calm Calm - N/A   Clear
12:53 AM 60.4 °F - 58.1 °F 92% 30.05 in 10.0 mi Calm Calm - N/A   Clear
1:13 AM 59.2 °F - 56.8 °F 92% 30.05 in 10.0 mi Calm Calm - N/A   Clear
1:34 AM 60.1 °F - 57.4 °F 91% 30.05 in 10.0 mi Calm Calm - N/A   Clear
1:53 AM 58.6 °F - 55.9 °F 91% 30.05 in 10.0 mi Calm Calm - N/A   Clear
2:13 AM 59.5 °F - 57.6 °F 93% 30.05 in 10.0 mi Calm Calm - N/A   Clear
2:34 AM 57.4 °F - 55.4 °F 93% 30.04 in 10.0 mi Calm Calm - N/A   Clear
2:53 AM 59.0 °F - 57.2 °F 94% 30.03 in 10.0 mi Calm Calm - N/A   Clear
3:13 AM 57.6 °F - 55.6 °F 93% 30.03 in 10.0 mi Calm Calm - N/A   Clear
3:33 AM 56.8 °F - 54.9 °F 93% 30.03 in 7.0 mi Calm Calm - N/A   Clear
3:53 AM 57.7 °F - 55.9 °F 94% 30.03 in 10.0 mi Calm Calm - N/A   Clear
4:14 AM 58.3 °F - 56.5 °F 94% 30.03 in 10.0 mi Calm Calm - N/A   Clear
4:33 AM 55.4 °F - 53.6 °F 94% 30.03 in 10.0 mi Calm Calm - N/A   Clear
4:53 AM 57.0 °F - 55.2 °F 94% 30.03 in 7.0 mi Calm Calm - N/A   Clear
5:14 AM 55.4 °F - 53.6 °F 94% 30.03 in 1.0 mi Calm Calm - N/A   Unknown
5:33 AM 54.7 °F - 52.9 °F 94% 30.03 in 7.0 mi Calm Calm - N/A   Clear
5:53 AM 54.3 °F - 52.7 °F 94% 30.03 in 5.0 mi Calm Calm - N/A   Clear
6:14 AM 54.7 °F - 53.1 °F 94% 30.03 in 7.0 mi Calm Calm - N/A   Clear
6:33 AM 54.3 °F - 52.7 °F 94% 30.04 in 10.0 mi Calm Calm - N/A   Clear
6:53 AM 54.9 °F - 53.2 °F 94% 30.04 in 10.0 mi Calm Calm - N/A   Clear
7:13 AM 56.3 °F - 54.5 °F 94% 30.04 in 10.0 mi Calm Calm - N/A   Clear
7:33 AM 56.8 °F - 55.0 °F 94% 30.05 in 10.0 mi Calm Calm - N/A   Clear
7:54 AM 60.1 °F - 58.3 °F 94% 30.05 in 10.0 mi Calm Calm - N/A   Clear
8:13 AM 62.2 °F - 59.5 °F 91% 30.05 in 10.0 mi Calm Calm - N/A   Clear
8:33 AM 64.4 °F - 61.2 °F 89% 30.05 in 10.0 mi Calm Calm - N/A   Clear
8:54 AM 66.9 °F - 60.6 °F 80% 30.05 in 10.0 mi Calm Calm - N/A   Clear
9:13 AM 69.3 °F - 60.8 °F 74% 30.05 in 10.0 mi Calm Calm - N/A   Clear
9:33 AM 71.4 °F - 59.9 °F 67% 30.05 in 10.0 mi Calm Calm - N/A   Clear
9:54 AM 73.4 °F - 56.5 °F 55% 30.05 in 10.0 mi Calm Calm - N/A   Clear
10:13 AM 74.3 °F - 57.9 °F 57% 30.05 in 10.0 mi Calm Calm - N/A   Clear
10:33 AM 75.6 °F - 57.7 °F 54% 30.05 in 10.0 mi South 3.5 mph - N/A   Clear
10:54 AM 76.3 °F - 57.6 °F 52% 30.05 in 10.0 mi South 3.5 mph - N/A   Clear
11:13 AM 78.4 °F - 57.9 °F 49% 30.05 in 10.0 mi WSW 3.5 mph - N/A   Clear
11:33 AM 79.3 °F - 56.8 °F 46% 30.05 in 10.0 mi WNW 5.8 mph - N/A   Clear
11:54 AM 79.0 °F - 57.7 °F 48% 30.05 in 10.0 mi West 6.9 mph - N/A   Clear
12:13 PM 79.9 °F - 58.1 °F 47% 30.04 in 10.0 mi SW 5.8 mph - N/A   Clear
12:33 PM 81.9 °F 81.0 °F 53.2 °F 37% 30.04 in 10.0 mi West 8.1 mph - N/A   Clear
12:54 PM 82.0 °F 81.3 °F 54.0 °F 38% 30.03 in 10.0 mi WNW 8.1 mph - N/A   Clear
1:13 PM 81.5 °F 81.1 °F 55.4 °F 41% 30.03 in 10.0 mi West 8.1 mph 18.4 mph N/A   Clear
1:33 PM 82.4 °F 81.4 °F 53.8 °F 37% 30.03 in 10.0 mi WNW 11.5 mph 17.3 mph N/A   Clear
1:54 PM 82.4 °F 81.9 °F 56.7 °F 41% 30.03 in 10.0 mi West 9.2 mph - N/A   Clear
2:13 PM 83.5 °F - 52.0 °F 34% 30.02 in 10.0 mi West 9.2 mph - N/A   Clear
2:33 PM 83.8 °F - 52.5 °F 34% 30.02 in 10.0 mi WNW 10.4 mph 16.1 mph N/A   Clear
2:54 PM 84.4 °F 82.9 °F 53.8 °F 35% 30.01 in 10.0 mi West 11.5 mph - N/A   Clear
3:13 PM 84.4 °F 82.9 °F 53.6 °F 35% 30.01 in 10.0 mi NW 10.4 mph - N/A   Clear
3:33 PM 84.7 °F - 52.2 °F 32% 30.00 in 10.0 mi NNW 10.4 mph 16.1 mph N/A   Clear
3:54 PM 84.4 °F 82.8 °F 53.2 °F 34% 30.00 in 10.0 mi NNW 10.4 mph 16.1 mph N/A   Clear
4:13 PM 84.4 °F - 52.5 °F 33% 30.00 in 10.0 mi WNW 4.6 mph - N/A   Clear
4:33 PM 84.0 °F - 52.2 °F 33% 29.99 in 10.0 mi NW 4.6 mph - N/A   Clear
4:54 PM 85.1 °F - 51.6 °F 31% 29.99 in 10.0 mi West 9.2 mph - N/A   Clear
5:13 PM 84.7 °F - 51.8 °F 32% 29.98 in 10.0 mi WNW 6.9 mph - N/A   Clear
5:33 PM 84.6 °F - 51.4 °F 32% 29.98 in 10.0 mi WNW 8.1 mph - N/A   Clear
5:54 PM 84.2 °F - 51.3 °F 32% 29.98 in 10.0 mi WNW 9.2 mph - N/A   Clear
6:13 PM 84.2 °F - 51.8 °F 33% 29.97 in 10.0 mi NNW 5.8 mph - N/A   Clear
6:33 PM 84.2 °F - 50.5 °F 31% 29.97 in 10.0 mi West 4.6 mph - N/A   Clear
6:53 PM 83.5 °F - 50.5 °F 32% 29.97 in 10.0 mi NW 4.6 mph - N/A   Clear
7:13 PM 83.3 °F - 52.9 °F 35% 29.97 in 10.0 mi NW 3.5 mph - N/A   Clear
7:34 PM 82.4 °F - 52.9 °F 36% 29.97 in 10.0 mi NNW 3.5 mph - N/A   Clear
7:53 PM 81.5 °F 80.7 °F 53.1 °F 37% 29.97 in 10.0 mi NNW 3.5 mph - N/A   Clear
8:13 PM 79.7 °F - 53.8 °F 41% 29.97 in 10.0 mi Calm Calm - N/A   Clear
8:53 PM 69.1 °F - 61.5 °F 77% 29.98 in 10.0 mi Calm Calm - N/A   Clear
9:13 PM 67.3 °F - 62.6 °F 85% 29.99 in 10.0 mi Calm Calm - N/A   Clear
9:34 PM 66.6 °F - 62.6 °F 87% 29.99 in 10.0 mi Calm Calm - N/A   Clear
9:53 PM 66.4 °F - 62.4 °F 87% 29.99 in 10.0 mi Calm Calm - N/A   Clear
10:13 PM 64.9 °F - 61.7 °F 89% 30.00 in 10.0 mi Calm Calm - N/A   Clear
10:34 PM 65.3 °F - 61.7 °F 88% 30.00 in 10.0 mi Calm Calm - N/A   Clear
10:53 PM 65.5 °F - 61.0 °F 85% 30.00 in 10.0 mi Calm Calm - N/A   Clear
11:13 PM 64.6 °F - 61.0 °F 88% 30.00 in 10.0 mi Calm Calm - N/A   Clear
11:34 PM 64.8 °F - 60.8 °F 87% 30.00 in 10.0 mi Calm Calm - N/A   Clear
11:53 PM 63.5 °F - 59.9 °F 88% 30.00 in 10.0 mi Calm Calm - N/A   Clear